Regional Weather Roundup
Issued by NWS

Home | Current Version | Previous Version | Graphics & Text | Print | Product List | Glossary On
Versions: 1 2 3 4 5 6 7 8 9 10 11 12 13 14 15 16 17 18 19 20 21 22 23 24 25 26 27 28 29 30 31 32 33 34 35 36 37 38 39 40 41 42 43 44 45 46 47 48 49 50
000
ASUS45 KBOU 182107
RWRCO

WEATHER ROUNDUP FOR COLORADO
NATIONAL WEATHER SERVICE DENVER/BOULDER CO
200 PM MST SAT FEB 18 2017

NOTE: "FAIR" INDICATES FEW OR NO CLOUDS BELOW 12000 FEET WITH NO
SIGNIFICANT WEATHER AND/OR OBSTRUCTIONS TO VISIBILITY.

COZ001>005-013-030-031-182200-
...NORTHWEST COLORADO...

CITY           SKY/WX    TMP DP  RH WIND       PRES   REMARKS
CRAIG          CLOUDY    49  30  48 E3        29.73F
HAYDEN         FAIR      45  27  49 NE9       29.74F
MEEKER         CLOUDY    49  29  46 SW16      29.75F
MOUNT WERNER   NOT AVBL
STEAMBOAT SPGS FAIR      44  31  62 CALM      29.75F
WALDEN           N/A     41  23  48 NE3       29.77F
$$

COZ006>008-011-182200-
...WEST CENTRAL VALLEYS...

CITY           SKY/WX    TMP DP  RH WIND       PRES   REMARKS
GRAND JUNCTION LGT RAIN  47  40  76 NW10      29.75F
MONTROSE       CLOUDY    54  29  38 E3        29.73F
EAGLE          SUNNY     52  30  43 VRB5      29.73F
RIFLE          FAIR      55  32  41 W20       29.71F
DELTA          CLOUDY    56  31  39 CALM      29.73F
NUCLA          CLOUDY    45  36  70 NW3       29.79F
$$

COZ017>023-064>068-182200-
...SOUTHWEST COLORADO...

CITY           SKY/WX    TMP DP  RH WIND       PRES   REMARKS
DURANGO        FAIR      52  28  39 E6        29.74F
CORTEZ         PTSUNNY   56  31  38 S15G23    29.73F
PAGOSA SPRINGS PTSUNNY   49  19  29 N5        29.77F
TELLURIDE      CLOUDY    41  26  54 W8        29.80F
WOLF CREEK PAS PTSUNNY   32  19  59 S12G17    29.95F WCI  23
$$

COZ009-010-012-014-032>034-037-058>063-182200-
...CENTRAL COLORADO...

CITY           SKY/WX    TMP DP  RH WIND       PRES   REMARKS
ASPEN          FAIR      48  28  46 N7        29.71F
BUENA VISTA    FAIR      49  24  38 SE7       29.79F
COPPER MTN     NOT AVBL
BERTHOUD PASS  FAIR      30  19  64 S24G31    29.92R WCI  16
COTTONWOOD PAS PTSUNNY   43  25  49 E14       29.85F
GUNNISON       FAIR      34  26  72 E9        29.78F WCI  27
KREMMLING      FAIR      54  30  40 CALM      29.76S
LEADVILLE      FAIR      37  22  54 S9        29.81F
MONARCH PASS   PTSUNNY   32  21  64 S17G30    30.01F WCI  21
SALIDA         FAIR      54  24  31 S15G24    29.86F
SUNLIGHT       NOT AVBL
WILKERSON PASS FAIR      37  21  52 SW6       29.92F
$$

COZ069>075-182200-
...SAN LUIS VALLEY/SANGRE DE CRISTO MOUNTAINS...

CITY           SKY/WX    TMP DP  RH WIND       PRES   REMARKS
ALAMOSA        FAIR      48  32  53 E9        29.78F
LA VETA PASS   FAIR      45  25  45 MISG      29.89F
SAGUACHE       FAIR      48  28  46 SE8       29.80F
$$

COZ035-036-038>040-182200-
...NORTHERN COLORADO FRONT RANGE...

CITY           SKY/WX    TMP DP  RH WIND       PRES   REMARKS
DENVER INTL AP PTSUNNY   63  21  20 E16G22    29.65F
DMNS CITY PARK   N/A     66  21  17 NE13      29.65F
AURORA         PTSUNNY   65  23  20 S15       29.65F
FRONT RANGE AP NOT AVBL
ERIE MUNI ARPT FAIR      64  20  18 E9        29.65F
BOULDER MUN AP FAIR      61  21  21 N6        29.66F
CENTENNIAL     PTSUNNY   64  21  19 S17G24    29.67F
BROOMFIELD     PTSUNNY   64  21  19 E10       29.67F
FORT COLLINS   FAIR      59  21  23 SE6       29.67F
LONGMONT       FAIR      64  20  19 CALM      29.68F
$$

COZ041-046-047-076>085-087-088-182200-
...PIKES PEAK/PALMER DIVIDE AND SOUTHERN FOOTHILLS...

CITY           SKY/WX    TMP DP  RH WIND       PRES   REMARKS
COLO. SPRINGS  PTSUNNY   58  21  24 S14       29.75F
A. F. ACADEMY  FAIR      59  20  22 SE20G26   29.72F
SCHRIEVER AFB  FAIR      56  21  25 S14       29.76F
ELLICOTT       FAIR     N/A N/A N/A S14       29.75F
FALCON         FAIR      57  19  22 S20G25    29.78S
FORT CARSON    FAIR      59  22  24 S14G23    29.73F
LIMON          FAIR      61  22  22 S17G26    29.73F
MONUMENT HILL  FAIR      55  23  28 S25       29.75F
TRINIDAD       FAIR      66  24  20 S23       29.72F
$$

COZ042>045-048>051-090-091-182200-
...NORTHEAST COLORADO...

CITY           SKY/WX    TMP DP  RH WIND       PRES   REMARKS
GREELEY ARPT   FAIR      58  21  24 E9        29.68F
AKRON          FAIR      65  19  17 S23       29.70F
BURLINGTON     FAIR      64  24  21 S15G23    29.75F
WRAY           NOT AVBL
STERLING       FAIR      64  28  25 SW5       29.67F
HOLYOKE        FAIR      64  28  25 S15G21    29.73F
FORT MORGAN    FAIR      63  23  21 E8        29.68F
$$

COZ086-089-092>099-182200-
...SOUTHEAST COLORADO...

CITY           SKY/WX    TMP DP  RH WIND       PRES   REMARKS
PUEBLO         FAIR      63  25  23 SE13G21   29.70F
LA JUNTA       FAIR      64  23  21 SE12      29.71F
LAMAR          FAIR      64  27  24 VRB7      29.71F
SPRINGFIELD      N/A     64  19  17 S16       29.75F
$$



USA.gov is the U.S. government's official web portal to all federal, state and local government web resources and services.